Year,Month,Day,Hour,Minute,Value (Times are PST for temperature in C)
2018,06,17,00,00,13.20
2018,06,17,00,01,13.20
2018,06,17,00,02,13.20
2018,06,17,00,03,13.20
2018,06,17,00,04,13.20
2018,06,17,00,05,13.30
2018,06,17,00,06,13.30
2018,06,17,00,07,13.30
2018,06,17,00,08,13.30
2018,06,17,00,09,13.30
2018,06,17,00,10,13.30
2018,06,17,00,11,13.30
2018,06,17,00,12,13.30
2018,06,17,00,13,13.30
2018,06,17,00,14,13.30
2018,06,17,00,15,13.30
2018,06,17,00,16,13.30
2018,06,17,00,17,13.30
2018,06,17,00,18,13.30
2018,06,17,00,19,13.30
2018,06,17,00,20,13.30
2018,06,17,00,21,13.30
2018,06,17,00,22,13.30
2018,06,17,00,23,13.30
2018,06,17,00,24,13.30
2018,06,17,00,25,13.30
2018,06,17,00,26,13.30
2018,06,17,00,27,13.30
2018,06,17,00,28,13.30
2018,06,17,00,29,13.20
2018,06,17,00,30,13.10
2018,06,17,00,31,13.10
2018,06,17,00,32,13.10
2018,06,17,00,33,13.00
2018,06,17,00,34,13.00
2018,06,17,00,35,13.00
2018,06,17,00,36,12.90
2018,06,17,00,37,12.90
2018,06,17,00,38,12.90
2018,06,17,00,39,12.90
2018,06,17,00,40,12.90
2018,06,17,00,41,12.90
2018,06,17,00,42,12.90
2018,06,17,00,43,13.00
2018,06,17,00,44,13.00
2018,06,17,00,45,12.90
2018,06,17,00,46,12.90
2018,06,17,00,47,12.90
2018,06,17,00,48,12.90
2018,06,17,00,49,12.90
2018,06,17,00,50,12.90
2018,06,17,00,51,12.90
2018,06,17,00,52,12.90
2018,06,17,00,53,13.00
2018,06,17,00,54,13.00
2018,06,17,00,55,13.10
2018,06,17,00,56,13.20
2018,06,17,00,57,13.30
2018,06,17,00,58,13.40
2018,06,17,00,59,13.50
2018,06,17,01,00,13.60
2018,06,17,01,01,13.70
2018,06,17,01,02,13.90
2018,06,17,01,03,14.00
2018,06,17,01,04,14.20
2018,06,17,01,05,14.30
2018,06,17,01,06,14.50
2018,06,17,01,07,14.60
2018,06,17,01,08,14.70
2018,06,17,01,09,14.80
2018,06,17,01,10,14.90
2018,06,17,01,11,15.00
2018,06,17,01,12,15.10
2018,06,17,01,13,15.20
2018,06,17,01,14,15.30
2018,06,17,01,15,15.40
2018,06,17,01,16,15.50
2018,06,17,01,17,15.60
2018,06,17,01,18,15.80
2018,06,17,01,19,16.00
2018,06,17,01,20,16.10
2018,06,17,01,21,16.30
2018,06,17,01,22,16.50
2018,06,17,01,23,16.70
2018,06,17,01,24,16.80
2018,06,17,01,25,16.90
2018,06,17,01,26,17.00
2018,06,17,01,27,17.10
2018,06,17,01,28,17.20
2018,06,17,01,29,17.30
2018,06,17,01,30,17.30
2018,06,17,01,31,17.40
2018,06,17,01,32,17.50
2018,06,17,01,33,17.50
2018,06,17,01,34,17.60
2018,06,17,01,35,17.60
2018,06,17,01,36,17.70
2018,06,17,01,37,17.80
2018,06,17,01,38,17.80
2018,06,17,01,39,17.90
2018,06,17,01,40,17.90
2018,06,17,01,41,17.90
2018,06,17,01,42,17.90
2018,06,17,01,43,17.90
2018,06,17,01,44,17.90
2018,06,17,01,45,17.90
2018,06,17,01,46,17.90
2018,06,17,01,47,17.90
2018,06,17,01,48,17.90
2018,06,17,01,49,17.90
2018,06,17,01,50,17.90
2018,06,17,01,51,17.90
2018,06,17,01,52,17.90
2018,06,17,01,53,17.80
2018,06,17,01,54,17.80
2018,06,17,01,55,17.70
2018,06,17,01,56,17.70
2018,06,17,01,57,17.60
2018,06,17,01,58,17.60
2018,06,17,01,59,17.60
2018,06,17,02,00,17.60
2018,06,17,02,01,17.60
2018,06,17,02,02,17.50
2018,06,17,02,03,17.50
2018,06,17,02,04,17.50
2018,06,17,02,05,17.40
2018,06,17,02,06,17.40
2018,06,17,02,07,17.30
2018,06,17,02,08,17.30
2018,06,17,02,09,17.20
2018,06,17,02,10,17.20
2018,06,17,02,11,17.10
2018,06,17,02,12,17.10
2018,06,17,02,13,17.00
2018,06,17,02,14,16.90
2018,06,17,02,15,16.90
2018,06,17,02,16,16.80
2018,06,17,02,17,16.70
2018,06,17,02,18,16.60
2018,06,17,02,19,16.50
2018,06,17,02,20,16.50
2018,06,17,02,21,16.40
2018,06,17,02,22,16.30
2018,06,17,02,23,16.30
2018,06,17,02,24,16.20
2018,06,17,02,25,16.20
2018,06,17,02,26,16.10
2018,06,17,02,27,16.00
2018,06,17,02,28,16.00
2018,06,17,02,29,15.90
2018,06,17,02,30,15.90
2018,06,17,02,31,15.80
2018,06,17,02,32,15.80
2018,06,17,02,33,15.70
2018,06,17,02,34,15.70
2018,06,17,02,35,15.60
2018,06,17,02,36,15.60
2018,06,17,02,37,15.50
2018,06,17,02,38,15.50
2018,06,17,02,39,15.50
2018,06,17,02,40,15.40
2018,06,17,02,41,15.40
2018,06,17,02,42,15.40
2018,06,17,02,43,15.40
2018,06,17,02,44,15.40
2018,06,17,02,45,15.40
2018,06,17,02,46,15.40
2018,06,17,02,47,15.40
2018,06,17,02,48,15.50
2018,06,17,02,49,15.50
2018,06,17,02,50,15.60
2018,06,17,02,51,15.60
2018,06,17,02,52,15.70
2018,06,17,02,53,15.70
2018,06,17,02,54,15.70
2018,06,17,02,55,15.80
2018,06,17,02,56,15.90
2018,06,17,02,57,15.90
2018,06,17,02,58,15.90
2018,06,17,02,59,16.00
2018,06,17,03,00,16.00
2018,06,17,03,01,16.10
2018,06,17,03,02,16.10
2018,06,17,03,03,16.20
2018,06,17,03,04,16.20
2018,06,17,03,05,16.30
2018,06,17,03,06,16.40
2018,06,17,03,07,16.50
2018,06,17,03,08,16.60
2018,06,17,03,09,16.60
2018,06,17,03,10,16.60
2018,06,17,03,11,16.60
2018,06,17,03,12,16.70
2018,06,17,03,13,16.70
2018,06,17,03,14,16.80
2018,06,17,03,15,16.80
2018,06,17,03,16,16.80
2018,06,17,03,17,16.80
2018,06,17,03,18,16.80
2018,06,17,03,19,16.80
2018,06,17,03,20,16.70
2018,06,17,03,21,16.70
2018,06,17,03,22,16.70
2018,06,17,03,23,16.60
2018,06,17,03,24,16.60
2018,06,17,03,25,16.50
2018,06,17,03,26,16.50
2018,06,17,03,27,16.40
2018,06,17,03,28,16.30
2018,06,17,03,29,16.30
2018,06,17,03,30,16.30
2018,06,17,03,31,16.20
2018,06,17,03,32,16.20
2018,06,17,03,33,16.10
2018,06,17,03,34,16.10
2018,06,17,03,35,16.10
2018,06,17,03,36,16.00
2018,06,17,03,37,16.00
2018,06,17,03,38,15.90
2018,06,17,03,39,15.80
2018,06,17,03,40,15.80
2018,06,17,03,41,15.80
2018,06,17,03,42,15.80
2018,06,17,03,43,15.80
2018,06,17,03,44,15.70
2018,06,17,03,45,15.70
2018,06,17,03,46,15.70
2018,06,17,03,47,15.60
2018,06,17,03,48,15.60
2018,06,17,03,49,15.50
2018,06,17,03,50,15.40
2018,06,17,03,51,15.40
2018,06,17,03,52,15.30
2018,06,17,03,53,15.30
2018,06,17,03,54,15.20
2018,06,17,03,55,15.20
2018,06,17,03,56,15.10
2018,06,17,03,57,15.10
2018,06,17,03,58,15.00
2018,06,17,03,59,15.00
2018,06,17,04,00,15.00
2018,06,17,04,01,14.90
2018,06,17,04,02,14.90
2018,06,17,04,03,14.90
2018,06,17,04,04,14.80
2018,06,17,04,05,14.80
2018,06,17,04,06,14.70
2018,06,17,04,07,14.60
2018,06,17,04,08,14.50
2018,06,17,04,09,14.30
2018,06,17,04,10,14.20
2018,06,17,04,11,14.10
2018,06,17,04,12,14.00
2018,06,17,04,13,13.90
2018,06,17,04,14,13.90
2018,06,17,04,15,13.80
2018,06,17,04,16,13.80
2018,06,17,04,17,13.80
2018,06,17,04,18,13.80
2018,06,17,04,19,13.80
2018,06,17,04,20,13.90
2018,06,17,04,21,13.90
2018,06,17,04,22,13.90
2018,06,17,04,23,13.90
2018,06,17,04,24,13.90
2018,06,17,04,25,14.00
2018,06,17,04,26,14.00
2018,06,17,04,27,14.00
2018,06,17,04,28,14.00
2018,06,17,04,29,13.90
2018,06,17,04,30,13.90
2018,06,17,04,31,13.90
2018,06,17,04,32,13.80
2018,06,17,04,33,13.80
2018,06,17,04,34,13.80
2018,06,17,04,35,13.80
2018,06,17,04,36,13.70
2018,06,17,04,37,13.70
2018,06,17,04,38,13.70
2018,06,17,04,39,13.60
2018,06,17,04,40,13.60
2018,06,17,04,41,13.60
2018,06,17,04,42,13.60
2018,06,17,04,43,13.60
2018,06,17,04,44,13.60
2018,06,17,04,45,13.50
2018,06,17,04,46,13.50
2018,06,17,04,47,13.40
2018,06,17,04,48,13.40
2018,06,17,04,49,13.30
2018,06,17,04,50,13.30
2018,06,17,04,51,13.20
2018,06,17,04,52,13.20
2018,06,17,04,53,13.20
2018,06,17,04,54,13.20
2018,06,17,04,55,13.20
2018,06,17,04,56,13.20
2018,06,17,04,57,13.20
2018,06,17,04,58,13.20
2018,06,17,04,59,13.20
2018,06,17,05,00,13.20
2018,06,17,05,01,13.20
2018,06,17,05,02,13.20
2018,06,17,05,03,13.20
2018,06,17,05,04,13.10
2018,06,17,05,05,13.10
2018,06,17,05,06,13.10
2018,06,17,05,07,13.10
2018,06,17,05,08,13.10
2018,06,17,05,09,13.10
2018,06,17,05,10,13.10
2018,06,17,05,11,13.00
2018,06,17,05,12,13.00
2018,06,17,05,13,13.00
2018,06,17,05,14,13.00
2018,06,17,05,15,12.90
2018,06,17,05,16,12.90
2018,06,17,05,17,12.90
2018,06,17,05,18,12.90
2018,06,17,05,19,12.90
2018,06,17,05,20,12.90
2018,06,17,05,21,12.90
2018,06,17,05,22,12.90
2018,06,17,05,23,12.90
2018,06,17,05,24,12.90
2018,06,17,05,25,12.80
2018,06,17,05,26,12.80
2018,06,17,05,27,12.70
2018,06,17,05,28,12.60
2018,06,17,05,29,12.50
2018,06,17,05,30,12.50
2018,06,17,05,31,12.50
2018,06,17,05,32,12.50
2018,06,17,05,33,12.50
2018,06,17,05,34,12.50
2018,06,17,05,35,12.50
2018,06,17,05,36,12.60
2018,06,17,05,37,12.60
2018,06,17,05,38,12.60
2018,06,17,05,39,12.60
2018,06,17,05,40,12.60
2018,06,17,05,41,12.70
2018,06,17,05,42,12.70
2018,06,17,05,43,12.70
2018,06,17,05,44,12.70
2018,06,17,05,45,12.70
2018,06,17,05,46,12.70
2018,06,17,05,47,12.70
2018,06,17,05,48,12.70
2018,06,17,05,49,12.70
2018,06,17,05,50,12.70
2018,06,17,05,51,12.70
2018,06,17,05,52,12.70
2018,06,17,05,53,12.70
2018,06,17,05,54,12.70
2018,06,17,05,55,12.70
2018,06,17,05,56,12.70
2018,06,17,05,57,12.80
2018,06,17,05,58,12.80
2018,06,17,05,59,12.80
2018,06,17,06,00,12.80
2018,06,17,06,01,12.80
2018,06,17,06,02,12.80
2018,06,17,06,03,12.80
2018,06,17,06,04,12.80
2018,06,17,06,05,12.80
2018,06,17,06,06,12.80
2018,06,17,06,07,12.80
2018,06,17,06,08,12.80
2018,06,17,06,09,12.80
2018,06,17,06,10,12.80
2018,06,17,06,11,12.80
2018,06,17,06,12,12.90
2018,06,17,06,13,12.90
2018,06,17,06,14,12.90
2018,06,17,06,15,12.90
2018,06,17,06,16,13.00
2018,06,17,06,17,13.00
2018,06,17,06,18,13.00
2018,06,17,06,19,13.00
2018,06,17,06,20,13.00
2018,06,17,06,21,13.00
2018,06,17,06,22,13.00
2018,06,17,06,23,13.00
2018,06,17,06,24,13.10
2018,06,17,06,25,13.10
2018,06,17,06,26,13.20
2018,06,17,06,27,13.20
2018,06,17,06,28,13.30
2018,06,17,06,29,13.40
2018,06,17,06,30,13.50
2018,06,17,06,31,13.50
2018,06,17,06,32,13.60
2018,06,17,06,33,13.70
2018,06,17,06,34,13.80
2018,06,17,06,35,13.90
2018,06,17,06,36,14.00
2018,06,17,06,37,14.00
2018,06,17,06,38,14.10
2018,06,17,06,39,14.20
2018,06,17,06,40,14.20
2018,06,17,06,41,14.20
2018,06,17,06,42,14.20
2018,06,17,06,43,14.30
2018,06,17,06,44,14.30
2018,06,17,06,45,14.30
2018,06,17,06,46,14.30
2018,06,17,06,47,14.30
2018,06,17,06,48,14.30
2018,06,17,06,49,14.30
2018,06,17,06,50,14.30
2018,06,17,06,51,14.30
2018,06,17,06,52,14.30
2018,06,17,06,53,14.30
2018,06,17,06,54,14.30
2018,06,17,06,55,14.30
2018,06,17,06,56,14.40
2018,06,17,06,57,14.40
2018,06,17,06,58,14.40
2018,06,17,06,59,14.40
2018,06,17,07,00,14.40
2018,06,17,07,01,14.50
2018,06,17,07,02,14.50
2018,06,17,07,03,14.50
2018,06,17,07,04,14.60
2018,06,17,07,05,14.60
2018,06,17,07,06,14.70
2018,06,17,07,07,14.70
2018,06,17,07,08,14.80
2018,06,17,07,09,14.90
2018,06,17,07,10,15.00
2018,06,17,07,11,15.10
2018,06,17,07,12,15.30
2018,06,17,07,13,15.40
2018,06,17,07,14,15.50
2018,06,17,07,15,15.70
2018,06,17,07,16,15.80
2018,06,17,07,17,16.00
2018,06,17,07,18,16.20
2018,06,17,07,19,16.30
2018,06,17,07,20,16.40
2018,06,17,07,21,16.50
2018,06,17,07,22,16.60
2018,06,17,07,23,16.70
2018,06,17,07,24,16.80
2018,06,17,07,25,16.80
2018,06,17,07,26,17.00
2018,06,17,07,27,17.10
2018,06,17,07,28,17.20
2018,06,17,07,29,17.30
2018,06,17,07,30,17.40
2018,06,17,07,31,17.60
2018,06,17,07,32,17.70
2018,06,17,07,33,17.80
2018,06,17,07,34,17.90
2018,06,17,07,35,18.00
2018,06,17,07,36,18.10
2018,06,17,07,37,18.20
2018,06,17,07,38,18.30
2018,06,17,07,39,18.30
2018,06,17,07,40,18.40
2018,06,17,07,41,18.40
2018,06,17,07,42,18.50
2018,06,17,07,43,18.60
2018,06,17,07,44,18.60
2018,06,17,07,45,18.60
2018,06,17,07,46,18.70
2018,06,17,07,47,18.70
2018,06,17,07,48,18.70
2018,06,17,07,49,18.80
2018,06,17,07,50,18.80
2018,06,17,07,51,18.80
2018,06,17,07,52,18.80
2018,06,17,07,53,18.80
2018,06,17,07,54,18.90
2018,06,17,07,55,18.90
2018,06,17,07,56,19.00
2018,06,17,07,57,19.00
2018,06,17,07,58,19.10
2018,06,17,07,59,19.10
2018,06,17,08,00,19.20
2018,06,17,08,01,19.20
2018,06,17,08,02,19.20
2018,06,17,08,03,19.30
2018,06,17,08,04,19.30
2018,06,17,08,05,19.30
2018,06,17,08,06,19.30
2018,06,17,08,07,19.30
2018,06,17,08,08,19.30
2018,06,17,08,09,19.30
2018,06,17,08,10,19.30
2018,06,17,08,11,19.30
2018,06,17,08,12,19.40
2018,06,17,08,13,19.40
2018,06,17,08,14,19.40
2018,06,17,08,15,19.50
2018,06,17,08,16,19.50
2018,06,17,08,17,19.60
2018,06,17,08,18,19.60
2018,06,17,08,19,19.60
2018,06,17,08,20,19.60
2018,06,17,08,21,19.70
2018,06,17,08,22,19.70
2018,06,17,08,23,19.70
2018,06,17,08,24,19.70
2018,06,17,08,25,19.70
2018,06,17,08,26,19.70
2018,06,17,08,27,19.70
2018,06,17,08,28,19.70
2018,06,17,08,29,19.70
2018,06,17,08,30,19.70
2018,06,17,08,31,19.80
2018,06,17,08,32,19.80
2018,06,17,08,33,19.80
2018,06,17,08,34,19.90
2018,06,17,08,35,20.00
2018,06,17,08,36,20.10
2018,06,17,08,37,20.10
2018,06,17,08,38,20.20
2018,06,17,08,39,20.20
2018,06,17,08,40,20.30
2018,06,17,08,41,20.30
2018,06,17,08,42,20.40
2018,06,17,08,43,20.40
2018,06,17,08,44,20.50
2018,06,17,08,45,20.50
2018,06,17,08,46,20.60
2018,06,17,08,47,20.70
2018,06,17,08,48,20.70
2018,06,17,08,49,20.80
2018,06,17,08,50,20.80
2018,06,17,08,51,20.90
2018,06,17,08,52,20.90
2018,06,17,08,53,20.90
2018,06,17,08,54,20.90
2018,06,17,08,55,20.90
2018,06,17,08,56,20.80
2018,06,17,08,57,20.80
2018,06,17,08,58,20.80
2018,06,17,08,59,20.80
2018,06,17,09,00,20.70
2018,06,17,09,01,20.60
2018,06,17,09,02,20.50
2018,06,17,09,03,20.50
2018,06,17,09,04,20.40
2018,06,17,09,05,20.40
2018,06,17,09,06,20.30
2018,06,17,09,07,20.40
2018,06,17,09,08,20.40
2018,06,17,09,09,20.50
2018,06,17,09,10,20.50
2018,06,17,09,11,20.60
2018,06,17,09,12,20.70
2018,06,17,09,13,20.80
2018,06,17,09,14,20.80
2018,06,17,09,15,20.90
2018,06,17,09,16,20.90
2018,06,17,09,17,20.90
2018,06,17,09,18,20.90
2018,06,17,09,19,20.90
2018,06,17,09,20,20.90
2018,06,17,09,21,20.80
2018,06,17,09,22,20.80
2018,06,17,09,23,20.80
2018,06,17,09,24,20.70
2018,06,17,09,25,20.70
2018,06,17,09,26,20.70
2018,06,17,09,27,20.70
2018,06,17,09,28,20.70
2018,06,17,09,29,20.80
2018,06,17,09,30,20.80
2018,06,17,09,31,20.90
2018,06,17,09,32,21.00
2018,06,17,09,33,21.10
2018,06,17,09,34,21.20
2018,06,17,09,35,21.30
2018,06,17,09,36,21.40
2018,06,17,09,37,21.50
2018,06,17,09,38,21.60
2018,06,17,09,39,21.60
2018,06,17,09,40,21.60
2018,06,17,09,41,21.60
2018,06,17,09,42,21.60
2018,06,17,09,43,21.60
2018,06,17,09,44,21.50
2018,06,17,09,45,21.50
2018,06,17,09,46,21.50
2018,06,17,09,47,21.60
2018,06,17,09,48,21.70
2018,06,17,09,49,21.70
2018,06,17,09,50,21.80
2018,06,17,09,51,21.90
2018,06,17,09,52,22.10
2018,06,17,09,53,22.20
2018,06,17,09,54,22.40
2018,06,17,09,55,22.50
2018,06,17,09,56,22.70
2018,06,17,09,57,22.80
2018,06,17,09,58,22.90
2018,06,17,09,59,22.90
2018,06,17,10,00,23.00
2018,06,17,10,01,23.00
2018,06,17,10,02,23.00
2018,06,17,10,03,22.90
2018,06,17,10,04,22.80
2018,06,17,10,05,22.80
2018,06,17,10,06,22.80
2018,06,17,10,07,22.80
2018,06,17,10,08,22.80
2018,06,17,10,09,22.70
2018,06,17,10,10,22.70
2018,06,17,10,11,22.70
2018,06,17,10,12,22.70
2018,06,17,10,13,22.80
2018,06,17,10,14,22.80
2018,06,17,10,15,22.90
2018,06,17,10,16,22.90
2018,06,17,10,17,22.90
2018,06,17,10,18,22.90
2018,06,17,10,19,22.90
2018,06,17,10,20,22.90
2018,06,17,10,21,22.90
2018,06,17,10,22,23.00
2018,06,17,10,23,23.10
2018,06,17,10,24,23.10
2018,06,17,10,25,23.10
2018,06,17,10,26,23.10
2018,06,17,10,27,23.10
2018,06,17,10,28,23.10
2018,06,17,10,29,23.00
2018,06,17,10,30,23.00
2018,06,17,10,31,23.00
2018,06,17,10,32,22.90
2018,06,17,10,33,22.80
2018,06,17,10,34,22.60
2018,06,17,10,35,22.40
2018,06,17,10,36,22.30
2018,06,17,10,37,22.10
2018,06,17,10,38,22.00
2018,06,17,10,39,21.90
2018,06,17,10,40,22.00
2018,06,17,10,41,22.00
2018,06,17,10,42,22.10
2018,06,17,10,43,22.10
2018,06,17,10,44,22.10
2018,06,17,10,45,22.00
2018,06,17,10,46,21.90
2018,06,17,10,47,21.70
2018,06,17,10,48,21.60
2018,06,17,10,49,21.60
2018,06,17,10,50,21.50
2018,06,17,10,51,21.50
2018,06,17,10,52,21.60
2018,06,17,10,53,21.60
2018,06,17,10,54,21.60
2018,06,17,10,55,21.60
2018,06,17,10,56,21.70
2018,06,17,10,57,21.70
2018,06,17,10,58,21.80
2018,06,17,10,59,21.80
2018,06,17,11,00,21.80
2018,06,17,11,01,21.90
2018,06,17,11,02,21.90
2018,06,17,11,03,22.00
2018,06,17,11,04,22.00
2018,06,17,11,05,22.20
2018,06,17,11,06,22.30
2018,06,17,11,07,22.30
2018,06,17,11,08,22.40
2018,06,17,11,09,22.50
2018,06,17,11,10,22.50
2018,06,17,11,11,22.50
2018,06,17,11,12,22.40
2018,06,17,11,13,22.20
2018,06,17,11,14,22.10
2018,06,17,11,15,22.00
2018,06,17,11,16,22.00
2018,06,17,11,17,22.00
2018,06,17,11,18,22.10
2018,06,17,11,19,22.20
2018,06,17,11,20,22.20
2018,06,17,11,21,22.20
2018,06,17,11,22,22.30
2018,06,17,11,23,22.30
2018,06,17,11,24,22.20
2018,06,17,11,25,22.10
2018,06,17,11,26,22.10
2018,06,17,11,27,22.00
2018,06,17,11,28,21.90
2018,06,17,11,29,21.80
2018,06,17,11,30,21.70
2018,06,17,11,31,21.70
2018,06,17,11,32,21.70
2018,06,17,11,33,21.70
2018,06,17,11,34,21.80
2018,06,17,11,35,21.80
2018,06,17,11,36,21.80
2018,06,17,11,37,21.90
2018,06,17,11,38,21.90
2018,06,17,11,39,22.00
2018,06,17,11,40,22.00
2018,06,17,11,41,22.10
2018,06,17,11,42,22.20
2018,06,17,11,43,22.30
2018,06,17,11,44,22.30
2018,06,17,11,45,22.30
2018,06,17,11,46,22.30
2018,06,17,11,47,22.30
2018,06,17,11,48,22.30
2018,06,17,11,49,22.30
2018,06,17,11,50,22.40
2018,06,17,11,51,22.40
2018,06,17,11,52,22.40
2018,06,17,11,53,22.50
2018,06,17,11,54,22.60
2018,06,17,11,55,22.70
2018,06,17,11,56,22.80
2018,06,17,11,57,22.70
2018,06,17,11,58,22.70
2018,06,17,11,59,22.70
2018,06,17,12,00,22.70
2018,06,17,12,01,22.70
2018,06,17,12,02,22.70
2018,06,17,12,03,22.60
2018,06,17,12,04,22.60
2018,06,17,12,05,22.50
2018,06,17,12,06,22.40
2018,06,17,12,07,22.40
2018,06,17,12,08,22.40
2018,06,17,12,09,22.50
2018,06,17,12,10,22.60
2018,06,17,12,11,22.60
2018,06,17,12,12,22.70
2018,06,17,12,13,22.70
2018,06,17,12,14,22.80
2018,06,17,12,15,22.80
2018,06,17,12,16,22.80
2018,06,17,12,17,22.80
2018,06,17,12,18,22.90
2018,06,17,12,19,22.90
2018,06,17,12,20,22.90
2018,06,17,12,21,22.90
2018,06,17,12,22,23.00
2018,06,17,12,23,23.00
2018,06,17,12,24,23.10
2018,06,17,12,25,23.10
2018,06,17,12,26,23.10
2018,06,17,12,27,23.10
2018,06,17,12,28,23.20
2018,06,17,12,29,23.30
2018,06,17,12,30,23.40
2018,06,17,12,31,23.50
2018,06,17,12,32,23.60
2018,06,17,12,33,23.70
2018,06,17,12,34,23.70
2018,06,17,12,35,23.80
2018,06,17,12,36,23.80
2018,06,17,12,37,23.80
2018,06,17,12,38,23.70
2018,06,17,12,39,23.70
2018,06,17,12,40,23.60
2018,06,17,12,41,23.50
2018,06,17,12,42,23.50
2018,06,17,12,43,23.50
2018,06,17,12,44,23.50
2018,06,17,12,45,23.60
2018,06,17,12,46,23.60
2018,06,17,12,47,23.70
2018,06,17,12,48,23.60
2018,06,17,12,49,23.60
2018,06,17,12,50,23.50
2018,06,17,12,51,23.50
2018,06,17,12,52,23.50
2018,06,17,12,53,23.40
2018,06,17,12,54,23.40
2018,06,17,12,55,23.30
2018,06,17,12,56,23.30
2018,06,17,12,57,23.30
2018,06,17,12,58,23.30
2018,06,17,12,59,23.30
2018,06,17,13,00,23.20
2018,06,17,13,01,23.10
2018,06,17,13,02,23.00
2018,06,17,13,03,23.00
2018,06,17,13,04,23.00
2018,06,17,13,05,23.00
2018,06,17,13,06,22.90
2018,06,17,13,07,22.80
2018,06,17,13,08,22.80
2018,06,17,13,09,22.80
2018,06,17,13,10,22.80
2018,06,17,13,11,22.80
2018,06,17,13,12,22.80
2018,06,17,13,13,22.80
2018,06,17,13,14,22.80
2018,06,17,13,15,22.80
2018,06,17,13,16,22.80
2018,06,17,13,17,22.90
2018,06,17,13,18,23.00
2018,06,17,13,19,23.00
2018,06,17,13,20,23.10
2018,06,17,13,21,23.20
2018,06,17,13,22,23.30
2018,06,17,13,23,23.40
2018,06,17,13,24,23.50
2018,06,17,13,25,23.70
2018,06,17,13,26,23.80
2018,06,17,13,27,24.00
2018,06,17,13,28,24.00
2018,06,17,13,29,24.10
2018,06,17,13,30,24.10
2018,06,17,13,31,24.10
2018,06,17,13,32,24.10
2018,06,17,13,33,24.10
2018,06,17,13,34,24.00
2018,06,17,13,35,23.90
2018,06,17,13,36,23.90
2018,06,17,13,37,23.90
2018,06,17,13,38,23.80
2018,06,17,13,39,23.80
2018,06,17,13,40,23.80
2018,06,17,13,41,23.70
2018,06,17,13,42,23.70
2018,06,17,13,43,23.70
2018,06,17,13,44,23.70
2018,06,17,13,45,23.80
2018,06,17,13,46,23.80
2018,06,17,13,47,23.80
2018,06,17,13,48,23.80
2018,06,17,13,49,23.90
2018,06,17,13,50,23.90
2018,06,17,13,51,24.00
2018,06,17,13,52,24.00
2018,06,17,13,53,24.10
2018,06,17,13,54,24.10
2018,06,17,13,55,24.10
2018,06,17,13,56,24.10
2018,06,17,13,57,24.10
2018,06,17,13,58,24.10
2018,06,17,13,59,24.10
2018,06,17,14,00,24.10
2018,06,17,14,01,24.10
2018,06,17,14,02,24.10
2018,06,17,14,03,24.10
2018,06,17,14,04,24.10
2018,06,17,14,05,24.10
2018,06,17,14,06,24.10
2018,06,17,14,07,24.10
2018,06,17,14,08,24.10
2018,06,17,14,09,24.10
2018,06,17,14,10,24.10
2018,06,17,14,11,24.10
2018,06,17,14,12,24.10
2018,06,17,14,13,24.20
2018,06,17,14,14,24.20
2018,06,17,14,15,24.20
2018,06,17,14,16,24.30
2018,06,17,14,17,24.30
2018,06,17,14,18,24.30
2018,06,17,14,19,24.30
2018,06,17,14,20,24.30
2018,06,17,14,21,24.40
2018,06,17,14,22,24.60
2018,06,17,14,23,24.60
2018,06,17,14,24,24.70
2018,06,17,14,25,24.80
2018,06,17,14,26,24.90
2018,06,17,14,27,25.00
2018,06,17,14,28,25.10
2018,06,17,14,29,25.10
2018,06,17,14,30,25.10
2018,06,17,14,31,25.10
2018,06,17,14,32,25.10
2018,06,17,14,33,25.10
2018,06,17,14,34,25.10
2018,06,17,14,35,25.10
2018,06,17,14,36,25.10
2018,06,17,14,37,25.10
2018,06,17,14,38,25.20
2018,06,17,14,39,25.20
2018,06,17,14,40,25.20
2018,06,17,14,41,25.20
2018,06,17,14,42,25.30
2018,06,17,14,43,25.30
2018,06,17,14,44,25.40
2018,06,17,14,45,25.50
2018,06,17,14,46,25.50
2018,06,17,14,47,25.60
2018,06,17,14,48,25.70
2018,06,17,14,49,25.70
2018,06,17,14,50,25.80
2018,06,17,14,51,25.80
2018,06,17,14,52,25.80
2018,06,17,14,53,25.90
2018,06,17,14,54,26.00
2018,06,17,14,55,26.20
2018,06,17,14,56,26.30
2018,06,17,14,57,26.40
2018,06,17,14,58,26.50
2018,06,17,14,59,26.50
2018,06,17,15,00,26.40
2018,06,17,15,01,26.40
2018,06,17,15,02,26.50
2018,06,17,15,03,26.60
2018,06,17,15,04,26.80
2018,06,17,15,05,26.90
2018,06,17,15,06,27.00
2018,06,17,15,07,27.10
2018,06,17,15,08,27.10
2018,06,17,15,09,27.20
2018,06,17,15,10,27.20
2018,06,17,15,11,27.30
2018,06,17,15,12,27.30
2018,06,17,15,13,27.30
2018,06,17,15,14,27.40
2018,06,17,15,15,27.40
2018,06,17,15,16,27.50
2018,06,17,15,17,27.60
2018,06,17,15,18,27.60
2018,06,17,15,19,27.60
2018,06,17,15,20,27.60
2018,06,17,15,21,27.70
2018,06,17,15,22,27.80
2018,06,17,15,23,27.80
2018,06,17,15,24,27.90
2018,06,17,15,25,27.90
2018,06,17,15,26,27.90
2018,06,17,15,27,27.90
2018,06,17,15,28,27.90
2018,06,17,15,29,27.90
2018,06,17,15,30,27.80
2018,06,17,15,31,27.80
2018,06,17,15,32,27.70
2018,06,17,15,33,27.60
2018,06,17,15,34,27.60
2018,06,17,15,35,27.50
2018,06,17,15,36,27.50
2018,06,17,15,37,27.50
2018,06,17,15,38,27.50
2018,06,17,15,39,27.50
2018,06,17,15,40,27.40
2018,06,17,15,41,27.40
2018,06,17,15,42,27.30
2018,06,17,15,43,27.30
2018,06,17,15,44,27.30
2018,06,17,15,45,27.20
2018,06,17,15,46,27.20
2018,06,17,15,47,27.10
2018,06,17,15,48,27.10
2018,06,17,15,49,27.00
2018,06,17,15,50,27.00
2018,06,17,15,51,26.90
2018,06,17,15,52,27.00
2018,06,17,15,53,27.00
2018,06,17,15,54,27.00
2018,06,17,15,55,27.00
2018,06,17,15,56,27.00
2018,06,17,15,57,26.90
2018,06,17,15,58,26.90
2018,06,17,15,59,26.90
2018,06,17,16,00,26.90
2018,06,17,16,01,26.80
2018,06,17,16,02,26.80
2018,06,17,16,03,26.80
2018,06,17,16,04,26.80
2018,06,17,16,05,26.80
2018,06,17,16,06,26.90
2018,06,17,16,07,26.90
2018,06,17,16,08,26.80
2018,06,17,16,09,26.60
2018,06,17,16,10,26.30
2018,06,17,16,11,26.00
2018,06,17,16,12,25.60
2018,06,17,16,13,25.20
2018,06,17,16,14,24.90
2018,06,17,16,15,24.50
2018,06,17,16,16,24.20
2018,06,17,16,17,23.70
2018,06,17,16,18,23.30
2018,06,17,16,19,23.00
2018,06,17,16,20,22.80
2018,06,17,16,21,22.60
2018,06,17,16,22,22.40
2018,06,17,16,23,22.10
2018,06,17,16,24,22.10
2018,06,17,16,25,22.10
2018,06,17,16,26,22.00
2018,06,17,16,27,21.90
2018,06,17,16,28,21.80
2018,06,17,16,29,21.80
2018,06,17,16,30,21.80
2018,06,17,16,31,21.70
2018,06,17,16,32,21.70
2018,06,17,16,33,21.70
2018,06,17,16,34,21.80
2018,06,17,16,35,21.90
2018,06,17,16,36,22.00
2018,06,17,16,37,22.00
2018,06,17,16,38,22.10
2018,06,17,16,39,22.00
2018,06,17,16,40,22.00
2018,06,17,16,41,21.90
2018,06,17,16,42,22.00
2018,06,17,16,43,22.10
2018,06,17,16,44,22.20
2018,06,17,16,45,22.20
2018,06,17,16,46,22.30
2018,06,17,16,47,22.20
2018,06,17,16,48,22.20
2018,06,17,16,49,22.20
2018,06,17,16,50,22.20
2018,06,17,16,51,22.30
2018,06,17,16,52,22.20
2018,06,17,16,53,22.20
2018,06,17,16,54,22.10
2018,06,17,16,55,22.10
2018,06,17,16,56,22.20
2018,06,17,16,57,22.30
2018,06,17,16,58,22.40
2018,06,17,16,59,22.50
2018,06,17,17,00,22.60
2018,06,17,17,01,22.70
2018,06,17,17,02,22.70
2018,06,17,17,03,22.70
2018,06,17,17,04,22.70
2018,06,17,17,05,22.70
2018,06,17,17,06,22.70
2018,06,17,17,07,22.70
2018,06,17,17,08,22.80
2018,06,17,17,09,22.90
2018,06,17,17,10,23.00
2018,06,17,17,11,23.10
2018,06,17,17,12,23.20
2018,06,17,17,13,23.20
2018,06,17,17,14,23.20
2018,06,17,17,15,23.30
2018,06,17,17,16,23.30
2018,06,17,17,17,23.40
2018,06,17,17,18,23.40
2018,06,17,17,19,23.50